DW3753 Weather Reports


Display with metric or nautical units.
time (UTC)temp
F
wind
direction
speed
MPH
gust
MPH
rain 1hr
in
rain 24hr
in
rain mn
in
humidity
%
barometer
mb
20260507043006 57 69 2.0 6.0 0.00 0.03 0.03 75 1015.1
20260507042001 58 58 3.0 8.0 0.00 0.03 0.03 74 1015.1
20260507041002 58 71 4.0 9.0 0.00 0.03 0.03 74 1015.3
20260507035957 58 61 4.0 12.0 0.00 0.03 0.03 73 1015.4
20260507035452 59 19 3.0 11.0 0.00 0.03 0.03 73 1015.3
20260507033959 59 78 2.0 11.0 0.00 0.03 0.03 72 1015.3
20260507033439 59 53 3.0 8.0 0.00 0.03 0.03 72 1015.3
20260507032449 59 26 3.0 7.0 0.00 0.03 0.03 72 1015.1
20260507030956 59 57 2.0 9.0 0.00 0.03 0.03 72 1015.1
20260507025955 60 67 2.0 8.0 0.00 0.03 0.03 72 1015.3
20260507024954 60 33 2.0 9.0 0.00 0.03 0.03 72 1014.9
20260507023948 60 26 2.0 8.0 0.00 0.03 0.03 71 1014.7
20260507022949 60 355 3.0 9.0 0.00 0.03 0.03 71 1014.5
20260507021947 61 339 2.0 11.0 0.00 0.03 0.03 71 1014.4
20260507020954 61 5 2.0 5.0 0.00 0.03 0.03 71 1014.1
20260507015948 61 0 1.0 4.0 0.00 0.03 0.03 72 1014.0
20260507014948 62 33 2.0 7.0 0.00 0.03 0.03 72 1013.7
20260507013946 62 12 2.0 7.0 0.00 0.03 0.03 71 1013.6
20260507012946 62 344 1.0 5.0 0.00 0.03 0.03 71 1013.3
20260507012426 62 5 1.0 5.0 0.00 0.03 0.03 70 1013.1
20260507011423 63 69 1.0 3.0 0.00 0.03 0.03 70 1012.9
20260507010433 63 33 1.0 8.0 0.00 0.03 0.03 70 1012.8
20260507004946 63 40 2.0 7.0 0.00 0.03 0.03 69 1012.6
20260507003946 64 52 1.0 4.0 0.00 0.03 0.03 68 1012.5
20260507002943 64 5 2.0 5.0 0.00 0.03 0.03 66 1012.3
20260507002421 65 17 1.0 5.0 0.00 0.03 0.03 67 1012.3
20260507000943 65 335 1.0 5.0 0.00 0.03 0.03 67 1012.4
20260506235944 65 13 1.0 4.0 0.00 0.03 0.03 66 1012.2
20260506234942 65 17 1.0 5.0 0.00 0.03 0.03 66 1012.1
20260506233941 66 23 2.0 9.0 0.00 0.03 0.03 64 1011.9
20260506232943 66 355 4.0 13.0 0.00 0.03 0.03 65 1011.8
20260506231940 66 328 3.0 11.0 0.00 0.03 0.03 65 1011.7
20260506230942 66 355 2.0 6.0 0.00 0.03 0.03 65 1011.6
20260506230444 66 344 1.0 4.0 0.00 0.03 0.03 65 1011.5
20260506224941 67 15 2.0 7.0 0.00 0.03 0.03 63 1011.7
20260506223942 67 13 2.0 11.0 0.00 0.03 0.03 63 1011.5
20260506222942 67 71 1.0 4.0 0.00 0.03 0.03 66 1011.2
20260506221941 66 38 4.0 13.0 0.00 0.03 0.03 67 1011.2
20260506220940 66 63 2.0 11.0 0.00 0.03 0.03 65 1011.3
20260506215942 66 74 3.0 11.0 0.00 0.03 0.03 66 1011.3
20260506214940 65 65 2.0 9.0 0.00 0.03 0.03 66 1011.5
20260506213939 65 65 1.0 6.0 0.00 0.03 0.03 67 1011.6
20260506212939 65 65 2.0 9.0 0.00 0.03 0.03 67 1011.6
20260506211940 64 17 2.0 5.0 0.00 0.03 0.03 69 1011.5
20260506210934 63 0 1.0 6.0 0.00 0.03 0.03 69 1011.7
20260506210412 63 5 1.0 5.0 0.00 0.03 0.03 69 1011.9
20260506204931 63 40 2.0 5.0 0.00 0.03 0.03 69 1011.9
20260506203933 63 69 1.0 5.0 0.00 0.03 0.03 68 1011.6
20260506202931 63 0 1.0 5.0 0.00 0.03 0.03 70 1011.9
20260506201932 62 42 1.0 8.0 0.00 0.03 0.03 70 1012.2
20260506200931 62 64 2.0 10.0 0.00 0.03 0.03 69 1012.2
20260506195930 62 61 2.0 6.0 0.00 0.03 0.03 69 1012.5
20260506194934 62 63 2.0 9.0 0.00 0.03 0.03 71 1012.6
20260506193926 61 71 2.0 11.0 0.00 0.03 0.03 71 1012.6
20260506192927 61 71 1.0 9.0 0.00 0.03 0.03 73 1012.9
20260506191926 60 28 1.0 6.0 0.00 0.03 0.03 73 1012.9
20260506190925 60 80 2.0 7.0 0.00 0.03 0.03 72 1013.0
20260506185926 60 306 2.0 6.0 0.00 0.03 0.03 72 1013.0
20260506184926 60 5 2.0 9.0 0.00 0.03 0.03 73 1012.9
20260506184404 60 26 4.0 14.0 0.00 0.03 0.03 74 1012.6
20260506182925 59 340 6.0 13.0 0.00 0.03 0.03 75 1012.1
20260506181926 58 298 3.0 10.0 0.00 0.03 0.03 76 1012.4
20260506180921 58 355 5.0 14.0 0.00 0.03 0.03 77 1012.3
20260506175922 57 355 2.0 11.0 0.00 0.03 0.03 79 1012.4
20260506175835 56 355 2.0 8.0 0.00 0.03 0.03 78 1012.9
20260506173920 56 355 2.0 12.0 0.00 0.03 0.03 80 1012.8
20260506172922 55 23 2.0 9.0 0.00 0.03 0.03 81 1012.6
20260506171919 54 355 2.0 8.0 0.00 0.03 0.03 82 1012.6
20260506170920 54 57 2.0 7.0 0.00 0.03 0.03 82 1012.4
20260506165919 54 355 2.0 4.0 0.00 0.03 0.03 83 1012.8
20260506164921 53 5 2.0 5.0 0.00 0.03 0.03 84 1012.9
20260506163914 53 17 1.0 6.0 0.00 0.03 0.03 85 1012.9
20260506162914 53 12 2.0 7.0 0.00 0.03 0.03 86 1013.1
20260506161913 53 342 3.0 13.0 0.00 0.03 0.03 87 1012.9
20260506160915 53 0 5.0 14.0 0.00 0.03 0.03 87 1012.3
20260506155913 53 17 3.0 9.0 0.02 0.03 0.03 88 1011.9
20260506154914 53 29 2.0 11.0 0.03 0.03 0.03 88 1012.1
20260506153914 52 10 2.0 11.0 0.03 0.03 0.03 88 1013.0
20260506152915 53 333 2.0 10.0 0.03 0.03 0.03 88 1013.2
20260506151916 52 331 6.0 14.0 0.03 0.03 0.03 87 1012.5
20260506150909 52 322 3.0 13.0 0.03 0.03 0.03 87 1012.7
20260506150306 52 338 3.0 8.0 0.00 0.00 0.00 86 1014.3
20260506145941 52 333 3.0 8.0 0.01 0.01 0.01 86 1014.5
20260506143907 52 328 3.0 12.0 0.00 0.00 0.00 85 1014.1
20260506142907 52 0 3.0 13.0 0.00 0.00 0.00 85 1012.8
20260506141909 52 0 2.0 7.0 0.00 0.00 0.00 85 1012.1
20260506140910 52 355 5.0 11.0 0.00 0.00 0.00 84 1012.4
20260506135908 52 327 5.0 12.0 0.00 0.00 0.00 84 1013.2
20260506134908 52 346 6.0 13.0 0.00 0.00 0.00 84 1012.9
20260506133902 52 321 3.0 9.0 0.00 0.00 0.00 84 1012.8
20260506132902 52 13 2.0 13.0 0.00 0.00 0.00 84 1012.2
20260506132830 51 5 3.0 14.0 0.00 0.00 0.00 84 1011.9
20260506130905 51 310 3.0 11.0 0.00 0.00 0.00 84 1012.1
20260506125901 51 0 3.0 9.0 0.00 0.00 0.00 84 1011.8
20260506124901 51 10 3.0 14.0 0.00 0.00 0.00 83 1011.6
20260506123903 52 5 4.0 13.0 0.00 0.00 0.00 82 1011.3
20260506122901 52 39 4.0 13.0 0.00 0.00 0.00 81 1011.5
20260506121903 52 332 5.0 13.0 0.00 0.00 0.00 81 1011.5
20260506120856 53 341 4.0 13.0 0.00 0.00 0.00 80 1011.2
20260506115857 53 333 6.0 13.0 0.00 0.00 0.00 79 1011.2
20260506114856 53 348 7.0 14.0 0.00 0.00 0.00 78 1011.2
20260506113856 54 10 5.0 14.0 0.00 0.00 0.00 77 1010.9
20260506113335 54 5 3.0 11.0 0.00 0.00 0.00 76 1010.5
20260506111904 54 5 6.0 13.0 0.00 0.00 0.00 76 1010.5
20260506110856 54 334 5.0 13.0 0.00 0.00 0.00 75 1010.2
20260506105856 55 0 6.0 13.0 0.00 0.00 0.00 75 1009.9
20260506105340 55 325 3.0 14.0 0.00 0.00 0.00 76 1009.8
20260506103850 55 355 4.0 12.0 0.00 0.00 0.00 76 1009.8
20260506102852 55 331 6.0 14.0 0.00 0.00 0.00 75 1009.7
20260506101849 56 0 4.0 12.0 0.00 0.00 0.00 76 1009.6
20260506100849 56 327 3.0 8.0 0.00 0.00 0.00 77 1009.3
20260506100326 56 340 2.0 6.0 0.00 0.00 0.00 77 1009.1
20260506094849 56 355 2.0 10.0 0.00 0.00 0.00 77 1008.8
20260506093851 56 5 4.0 11.0 0.00 0.00 0.00 76 1008.8
20260506092850 56 333 4.0 12.0 0.00 0.00 0.00 77 1009.0
20260506092340 56 346 2.0 8.0 0.00 0.00 0.00 77 1008.7
20260506090844 56 17 2.0 10.0 0.00 0.00 0.00 77 1008.7
20260506085846 56 338 4.0 11.0 0.00 0.00 0.00 77 1008.7
20260506084844 56 341 3.0 9.0 0.00 0.00 0.00 77 1008.7
20260506083844 57 80 3.0 9.0 0.00 0.00 0.00 78 1008.6
20260506082843 57 5 3.0 9.0 0.00 0.00 0.00 78 1008.3
20260506081845 57 339 3.0 9.0 0.00 0.00 0.00 78 1008.3
20260506081326 57 339 4.0 12.0 0.00 0.00 0.00 78 1008.5
20260506072838 57 329 2.0 8.0 0.00 0.00 0.00 80 1008.4
20260506071839 57 342 0.0 3.0 0.00 0.00 0.00 80 1007.9
20260506071322 57 5 0.0 3.0 0.00 0.00 0.00 80 1008.0
20260506061839 59 50 2.0 9.0 0.00 0.00 0.00 80 1008.1
20260506060832 59 0 2.0 6.0 0.00 0.00 0.00 80 1008.0
20260506051406 60 5 2.0 6.0 0.00 0.00 0.00 79 1008.2
20260506051230 60 20 3.0 8.0 0.00 0.00 0.00 78 1008.2
20260506044831 61 11 2.0 7.0 0.00 0.00 0.00 78 1008.1
20260506043835 61 344 2.0 8.0 0.00 0.00 0.00 78 1007.9